GW5240 Weather Reports


time (UTC)temp
C
wind
direction
speed
KPH
gust
KPH
rain 1hr
cm
rain 24hr
cm
rain mn
cm
humidity
%
barometer
mb
20260906172042 25 140 3.2 4.8 0.00 0.00 0.00 75 1019.2
20260906171542 25 38 3.2 4.8 0.00 0.00 0.00 77 1019.4
20260906171037 25 181 3.2 4.8 0.00 0.00 0.00 76 1019.3
20260906170533 24 202 1.6 3.2 0.00 0.00 0.00 78 1019.6
20260906170032 23 140 1.6 3.2 0.00 0.00 0.00 78 1019.5
20260906165529 24 213 6.4 8.0 0.00 0.00 0.00 77 1019.5
20260906165024 23 129 0.0 3.2 0.00 0.00 0.00 80 1019.5
20260906164523 23 164 9.7 11.3 0.00 0.00 0.00 81 1019.7
20260906164020 23 136 3.2 4.8 0.00 0.00 0.00 81 1019.5
20260906163514 23 207 3.2 4.8 0.00 0.00 0.00 82 1019.8
20260906163010 22 126 3.2 4.8 0.00 0.00 0.00 82 1019.7
20260906162506 22 191 0.0 3.2 0.00 0.00 0.00 83 1019.8
20260906161956 22 153 3.2 4.8 0.00 0.00 0.00 82 1019.7
20260906161456 22 101 3.2 4.8 0.00 0.00 0.00 83 1019.9
20260906160954 22 169 3.2 3.2 0.00 0.00 0.00 83 1019.9
20260906160448 22 147 3.2 4.8 0.00 0.00 0.00 84 1019.9
20260906155947 22 193 3.2 3.2 0.00 0.00 0.00 83 1019.8
20260906155445 22 180 0.0 0.0 0.00 0.00 0.00 83 1019.6
20260906154942 22 249 1.6 3.2 0.00 0.00 0.00 83 1019.6
20260906154437 22 165 3.2 4.8 0.00 0.00 0.00 84 1019.7
20260906153935 22 173 0.0 3.2 0.00 0.00 0.00 83 1019.7
20260906153434 22 174 3.2 4.8 0.00 0.00 0.00 84 1019.6
20260906152929 22 193 3.2 3.2 0.00 0.00 0.00 84 1019.9
20260906152424 22 152 1.6 3.2 0.00 0.00 0.00 84 1019.9
20260906151923 22 172 3.2 8.0 0.00 0.00 0.00 83 1019.9
20260906151419 22 197 4.8 4.8 0.00 0.00 0.00 83 1020.0
20260906150914 22 190 1.6 3.2 0.00 0.00 0.00 85 1019.9
20260906150409 22 218 4.8 8.0 0.00 0.00 0.00 84 1019.7
20260906145909 22 121 1.6 3.2 0.00 0.00 0.00 84 1020.0
20260906145407 22 139 3.2 4.8 0.00 0.00 0.00 84 1019.8
20260906144903 22 185 1.6 3.2 0.00 0.00 0.00 85 1019.8
20260906144403 22 190 6.4 8.0 0.00 0.00 0.00 86 1019.8
20260906143858 22 167 1.6 3.2 0.00 0.00 0.00 86 1019.7
20260906143354 21 211 1.6 3.2 0.00 0.00 0.00 86 1019.8
20260906142849 22 125 0.0 3.2 0.00 0.00 0.00 86 1019.8
20260906142344 21 153 1.6 4.8 0.00 0.00 0.00 86 1019.7
20260906141845 21 159 4.8 4.8 0.00 0.00 0.00 87 1019.7
20260906141339 21 174 1.6 3.2 0.00 0.00 0.00 87 1019.6
20260906140838 22 163 3.2 4.8 0.00 0.00 0.00 86 1019.7
20260906140333 22 184 6.4 11.3 0.00 0.00 0.00 86 1019.6
20260906135831 22 176 1.6 3.2 0.00 0.00 0.00 86 1019.7
20260906135326 22 159 0.0 3.2 0.00 0.00 0.00 87 1019.4
20260906134821 22 356 4.8 8.0 0.00 0.00 0.00 88 1019.4
20260906134316 22 202 3.2 8.0 0.00 0.00 0.00 88 1019.5
20260906133812 21 131 1.6 3.2 0.00 0.00 0.00 88 1019.5
20260906133307 21 148 0.0 0.0 0.00 0.00 0.00 88 1019.4
20260906132803 21 95 4.8 8.0 0.00 0.00 0.00 89 1019.3
20260906132306 21 167 0.0 0.0 0.00 0.00 0.00 89 1019.3
20260906131758 21 187 3.2 4.8 0.00 0.00 0.00 90 1019.0
20260906131253 21 163 0.0 0.0 0.00 0.00 0.00 90 1019.1
20260906130749 21 159 0.0 0.0 0.00 0.00 0.00 90 1019.2
20260906130244 21 162 0.0 0.0 0.00 0.00 0.00 91 1019.0
20260906125742 21 164 0.0 0.0 0.00 0.00 0.00 91 1019.1
20260906125240 21 155 0.0 0.0 0.00 0.00 0.00 91 1019.1
20260906124735 21 174 0.0 0.0 0.00 0.00 0.00 92 1019.0
20260906124231 20 142 1.6 3.2 0.00 0.00 0.00 93 1019.0
20260906123729 20 161 0.0 0.0 0.00 0.00 0.00 93 1019.0
20260906123225 20 154 0.0 0.0 0.00 0.00 0.00 94 1018.9
20260906122725 20 166 0.0 0.0 0.00 0.00 0.00 94 1019.1
20260906122220 20 164 0.0 0.0 0.00 0.00 0.00 95 1019.0
20260906121716 20 159 0.0 0.0 0.00 0.00 0.00 95 1018.9
20260906121213 20 169 0.0 0.0 0.00 0.00 0.00 95 1019.0
20260906120708 20 170 0.0 0.0 0.00 0.00 0.00 95 1018.8
20260906120205 19 161 0.0 0.0 0.00 0.00 0.00 95 1018.8
20260906115700 20 159 0.0 0.0 0.00 0.00 0.00 94 1018.7
20260906115155 20 159 0.0 0.0 0.00 0.00 0.00 94 1018.7
20260906114654 20 159 0.0 0.0 0.00 0.00 0.00 94 1018.8
20260906114149 20 166 0.0 0.0 0.00 0.00 0.00 94 1018.7
20260906113650 20 171 0.0 0.0 0.00 0.00 0.00 94 1018.8
20260906113150 20 171 0.0 0.0 0.00 0.00 0.00 93 1018.6
20260906112649 20 171 0.0 0.0 0.00 0.00 0.00 93 1018.6
20260906112146 20 171 0.0 0.0 0.00 0.00 0.00 93 1018.6
20260906111645 20 171 0.0 0.0 0.00 0.00 0.00 93 1018.6
20260906111139 20 171 0.0 0.0 0.00 0.00 0.00 93 1018.4
20260906110635 20 168 0.0 0.0 0.00 0.00 0.00 92 1018.4
20260906110130 20 156 0.0 0.0 0.00 0.00 0.00 92 1018.4
20260906105624 20 158 0.0 0.0 0.00 0.00 0.00 92 1018.6
20260906105121 20 154 0.0 0.0 0.00 0.00 0.00 92 1018.5
20260906104619 21 159 0.0 0.0 0.00 0.00 0.00 92 1018.5
20260906104108 21 171 0.0 3.2 0.00 0.00 0.00 92 1018.5
20260906103606 21 159 0.0 0.0 0.00 0.00 0.00 91 1018.6
20260906103101 21 164 0.0 0.0 0.00 0.00 0.00 91 1018.4
20260906102601 21 170 0.0 0.0 0.00 0.00 0.00 91 1018.4
20260906102056 21 153 0.0 0.0 0.00 0.00 0.00 91 1018.4
20260906101556 21 155 0.0 0.0 0.00 0.00 0.00 91 1018.3
20260906101051 21 161 0.0 0.0 0.00 0.00 0.00 91 1018.5
20260906100547 21 183 0.0 0.0 0.00 0.00 0.00 91 1018.2
20260906100048 21 166 0.0 0.0 0.00 0.00 0.00 91 1018.2
20260906095547 21 162 0.0 0.0 0.00 0.00 0.00 91 1018.2
20260906095043 21 202 3.2 4.8 0.00 0.00 0.00 92 1018.0
20260906094542 21 162 0.0 0.0 0.00 0.00 0.00 92 1017.8
20260906094038 21 156 0.0 0.0 0.00 0.00 0.00 91 1017.6
20260906093533 21 167 0.0 0.0 0.00 0.00 0.00 91 1017.5
20260906093028 21 187 0.0 3.2 0.00 0.00 0.00 92 1017.8
20260906092523 21 171 0.0 3.2 0.00 0.00 0.00 92 1017.5
20260906092018 21 161 0.0 0.0 0.00 0.00 0.00 92 1017.5
20260906091513 21 158 0.0 0.0 0.00 0.00 0.00 91 1017.4
20260906091011 21 157 0.0 0.0 0.00 0.00 0.00 91 1017.5
20260906090511 21 162 0.0 0.0 0.00 0.00 0.00 91 1017.7
20260906090010 21 162 0.0 0.0 0.00 0.00 0.00 91 1017.5
20260906085509 21 161 0.0 0.0 0.00 0.00 0.00 90 1017.7
20260906085009 21 163 0.0 0.0 0.00 0.00 0.00 90 1017.7
20260906084504 21 156 0.0 0.0 0.00 0.00 0.00 90 1017.6
20260906084002 21 160 0.0 0.0 0.00 0.00 0.00 90 1017.6
20260906083459 21 155 0.0 0.0 0.00 0.00 0.00 89 1017.6
20260906082957 21 163 0.0 0.0 0.00 0.00 0.00 89 1017.5
20260906082453 21 155 0.0 0.0 0.00 0.00 0.00 90 1017.4
20260906081949 21 158 0.0 0.0 0.00 0.00 0.00 90 1017.5
20260906081443 21 165 0.0 0.0 0.00 0.00 0.00 89 1017.5
20260906080940 21 158 0.0 0.0 0.00 0.00 0.00 89 1017.6
20260906080436 21 158 0.0 0.0 0.00 0.00 0.00 89 1017.3
20260906075931 21 154 1.6 3.2 0.00 0.00 0.00 89 1017.4
20260906075426 21 152 0.0 0.0 0.00 0.00 0.00 89 1017.5
20260906074921 21 174 0.0 0.0 0.00 0.00 0.00 89 1017.3
20260906074420 21 172 0.0 0.0 0.00 0.00 0.00 89 1017.5
20260906073919 21 150 0.0 0.0 0.00 0.00 0.00 90 1017.6
20260906073414 21 160 0.0 0.0 0.00 0.00 0.00 89 1017.6
20260906072911 21 160 0.0 0.0 0.00 0.00 0.00 89 1017.6
20260906072406 22 160 0.0 0.0 0.00 0.00 0.00 88 1017.7
20260906071901 22 160 0.0 0.0 0.00 0.00 0.00 88 1017.7
20260906071357 22 169 0.0 0.0 0.00 0.00 0.00 88 1017.8
20260906070853 22 162 0.0 0.0 0.00 0.00 0.00 87 1017.9
20260906070349 22 161 0.0 0.0 0.00 0.00 0.00 87 1017.8
20260906065844 22 171 0.0 0.0 0.00 0.00 0.00 87 1018.0
20260906065338 22 155 0.0 0.0 0.00 0.00 0.00 87 1018.1
20260906064834 22 164 0.0 0.0 0.00 0.00 0.00 86 1018.1
20260906064331 22 159 0.0 0.0 0.00 0.00 0.00 85 1017.9
20260906063830 22 167 0.0 0.0 0.00 0.00 0.00 85 1017.9
20260906063326 23 175 0.0 0.0 0.00 0.00 0.00 84 1017.8
20260906062821 23 162 0.0 0.0 0.00 0.00 0.00 84 1018.0
20260906062320 23 167 0.0 0.0 0.00 0.00 0.00 84 1018.1
20260906061815 23 153 0.0 0.0 0.00 0.00 0.00 84 1017.8
20260906061312 23 169 0.0 0.0 0.00 0.00 0.00 84 1017.9
20260906060806 23 226 4.8 8.0 0.00 0.00 0.00 85 1018.0
20260906060304 23 166 1.6 3.2 0.00 0.00 0.00 85 1017.9
20260906055800 23 159 0.0 0.0 0.00 0.00 0.00 85 1017.8
20260906055255 22 172 0.0 0.0 0.00 0.00 0.00 85 1017.9
20260906054750 22 168 0.0 3.2 0.00 0.00 0.00 86 1017.9
20260906054245 22 156 0.0 0.0 0.00 0.00 0.00 85 1017.9
20260906053742 22 166 0.0 0.0 0.00 0.00 0.00 85 1017.9
20260906053237 22 161 0.0 0.0 0.00 0.00 0.00 85 1017.9
20260906052732 22 158 0.0 0.0 0.00 0.00 0.00 85 1017.9
20260906052228 23 158 0.0 0.0 0.00 0.00 0.00 84 1017.9
20260906051725 23 170 0.0 0.0 0.00 0.00 0.00 85 1018.0
20260906051225 23 161 0.0 0.0 0.00 0.00 0.00 85 1018.0
20260906050720 23 162 0.0 0.0 0.00 0.00 0.00 85 1018.1
20260906050215 22 163 0.0 0.0 0.00 0.00 0.00 85 1018.1
20260906045714 23 171 0.0 0.0 0.00 0.00 0.00 85 1018.2
20260906045209 23 172 0.0 0.0 0.00 0.00 0.00 85 1017.9
20260906044705 22 168 0.0 0.0 0.00 0.00 0.00 85 1018.2
20260906044159 22 170 0.0 0.0 0.00 0.00 0.00 86 1018.1
20260906043656 22 169 0.0 0.0 0.00 0.00 0.00 86 1018.2
20260906043151 22 169 0.0 0.0 0.00 0.00 0.00 86 1018.3
20260906042651 22 169 0.0 0.0 0.00 0.00 0.00 86 1018.3
20260906042144 22 169 0.0 0.0 0.00 0.00 0.00 86 1018.2
20260906041640 22 169 0.0 0.0 0.00 0.00 0.00 86 1018.3
20260906041135 22 169 0.0 0.0 0.00 0.00 0.00 86 1018.4
20260906040631 22 169 0.0 0.0 0.00 0.00 0.00 86 1018.2
20260906040126 22 167 0.0 0.0 0.00 0.00 0.00 86 1018.4
20260906035621 22 168 0.0 0.0 0.00 0.00 0.00 87 1018.4
20260906035117 22 158 0.0 0.0 0.00 0.00 0.00 87 1018.3
20260906034617 22 158 0.0 0.0 0.00 0.00 0.00 87 1018.4
20260906034112 22 158 0.0 0.0 0.00 0.00 0.00 87 1018.3
20260906033608 22 158 0.0 0.0 0.00 0.00 0.00 86 1018.3
20260906033103 22 158 0.0 0.0 0.00 0.00 0.00 86 1018.3
20260906032559 23 158 0.0 0.0 0.00 0.00 0.00 85 1018.2
20260906032059 23 158 0.0 0.0 0.00 0.00 0.00 84 1018.2
20260906031555 23 158 0.0 0.0 0.00 0.00 0.00 84 1018.2
20260906031050 23 163 0.0 0.0 0.00 0.00 0.00 83 1018.2
20260906030549 23 163 0.0 0.0 0.00 0.00 0.00 83 1018.1
20260906030049 23 163 0.0 0.0 0.00 0.00 0.00 83 1018.2
20260906025549 23 163 0.0 0.0 0.00 0.00 0.00 83 1018.4
20260906025048 23 163 0.0 0.0 0.00 0.00 0.00 83 1018.4
20260906024543 23 163 0.0 0.0 0.00 0.00 0.00 83 1018.4
20260906024043 23 165 0.0 0.0 0.00 0.00 0.00 83 1018.4
20260906023539 23 174 0.0 0.0 0.00 0.00 0.00 82 1018.2
20260906023034 23 172 0.0 0.0 0.00 0.00 0.00 83 1018.1
20260906022529 23 170 0.0 0.0 0.00 0.00 0.00 82 1018.1
20260906022024 23 169 0.0 0.0 0.00 0.00 0.00 82 1018.0
20260906021520 23 169 0.0 0.0 0.00 0.00 0.00 81 1017.7
20260906021014 23 169 0.0 0.0 0.00 0.00 0.00 82 1017.8
20260906020513 23 162 0.0 0.0 0.00 0.00 0.00 81 1017.7
20260906020013 24 171 0.0 0.0 0.00 0.00 0.00 81 1017.5
20260906015512 24 161 0.0 0.0 0.00 0.00 0.00 80 1017.3
20260906015012 24 171 0.0 0.0 0.00 0.00 0.00 80 1017.1
20260906014512 25 199 3.2 4.8 0.00 0.00 0.00 79 1017.2
20260906014009 25 167 0.0 0.0 0.00 0.00 0.00 79 1016.9
20260906013504 25 159 0.0 3.2 0.00 0.00 0.00 79 1016.7
20260906012959 25 170 0.0 3.2 0.00 0.00 0.00 78 1016.6
20260906012454 25 157 0.0 0.0 0.00 0.00 0.00 78 1016.3
20260906011953 25 124 0.0 3.2 0.00 0.00 0.00 77 1016.3
20260906011449 25 159 0.0 0.0 0.00 0.00 0.00 76 1016.2
20260906010944 25 143 3.2 3.2 0.00 0.00 0.00 76 1016.1
20260906010439 25 159 0.0 0.0 0.00 0.00 0.00 75 1016.1
20260906005936 26 174 1.6 4.8 0.00 0.00 0.00 75 1016.0
20260906005435 26 190 3.2 3.2 0.00 0.00 0.00 75 1016.0
20260906004934 26 174 3.2 3.2 0.00 0.00 0.00 74 1016.0
20260906004428 26 161 3.2 8.0 0.00 0.00 0.00 73 1016.0
20260906003924 26 164 0.0 3.2 0.00 0.00 0.00 72 1015.7
20260906003419 27 154 3.2 4.8 0.00 0.00 0.00 71 1015.8
20260906002914 27 189 3.2 4.8 0.00 0.00 0.00 69 1015.5
20260906002408 27 185 0.0 0.0 0.00 0.00 0.00 67 1015.5
20260906001903 27 167 0.0 0.0 0.00 0.00 0.00 66 1015.6
20260906001359 27 147 0.0 0.0 0.00 0.00 0.00 65 1015.4
20260906000859 27 165 0.0 0.0 0.00 0.00 0.00 65 1015.5
20260906000356 27 141 0.0 3.2 0.00 0.00 0.00 64 1015.6
20260905235849 28 173 3.2 4.8 0.00 0.00 0.00 64 1015.7
20260905235348 28 175 0.0 3.2 0.00 0.00 0.00 64 1015.6
20260905234844 28 181 0.0 0.0 0.00 0.00 0.00 64 1015.6
20260905234339 28 169 0.0 3.2 0.00 0.00 0.00 63 1015.5
20260905233834 28 157 3.2 3.2 0.00 0.00 0.00 63 1015.4
20260905233329 28 151 3.2 3.2 0.00 0.00 0.00 62 1015.2
20260905232828 28 39 4.8 4.8 0.00 0.00 0.00 61 1015.1
20260905232325 28 164 0.0 0.0 0.00 0.00 0.00 61 1015.2
20260905231820 29 140 3.2 4.8 0.00 0.00 0.00 60 1015.1
20260905231315 29 123 1.6 3.2 0.00 0.00 0.00 60 1015.2
20260905230811 29 173 0.0 0.0 0.00 0.00 0.00 61 1015.0
20260905230309 29 152 1.6 3.2 0.00 0.00 0.00 60 1014.9
20260905225809 29 175 1.6 3.2 0.00 0.00 0.00 61 1015.1
20260905225306 29 149 3.2 4.8 0.00 0.00 0.00 61 1014.9
20260905224804 30 170 0.0 3.2 0.00 0.00 0.00 60 1014.7
20260905224300 30 101 6.4 8.0 0.00 0.00 0.00 59 1014.7
20260905223755 30 209 3.2 3.2 0.00 0.00 0.00 58 1014.9
20260905223252 30 51 6.4 8.0 0.00 0.00 0.00 58 1014.9
20260905222747 30 248 0.0 3.2 0.00 0.00 0.00 57 1014.8
20260905222246 30 189 3.2 4.8 0.00 0.00 0.00 57 1015.0
20260905221742 30 171 1.6 3.2 0.00 0.00 0.00 57 1015.0
20260905221239 31 108 3.2 3.2 0.00 0.00 0.00 55 1015.1
20260905220734 31 119 3.2 3.2 0.00 0.00 0.00 55 1015.2
20260905220231 31 176 1.6 3.2 0.00 0.00 0.00 56 1015.1
20260905215729 31 187 4.8 4.8 0.00 0.00 0.00 56 1015.2
20260905215225 31 106 3.2 4.8 0.00 0.00 0.00 56 1015.2
20260905214721 31 182 3.2 4.8 0.00 0.00 0.00 56 1015.4
20260905214216 30 186 1.6 3.2 0.00 0.00 0.00 57 1015.2
20260905213711 30 278 1.6 3.2 0.00 0.00 0.00 57 1015.3
20260905213207 31 87 3.2 11.3 0.00 0.00 0.00 56 1015.3
20260905212702 31 194 3.2 4.8 0.00 0.00 0.00 57 1015.2
20260905212201 31 177 1.6 3.2 0.00 0.00 0.00 57 1015.2
20260905211656 31 168 4.8 11.3 0.00 0.00 0.00 57 1015.3
20260905211151 30 134 3.2 3.2 0.00 0.00 0.00 58 1015.2
20260905210649 31 113 1.6 3.2 0.00 0.00 0.00 58 1015.1
20260905210148 31 106 4.8 8.0 0.00 0.00 0.00 58 1015.3
20260905205647 30 166 3.2 3.2 0.00 0.00 0.00 58 1015.3
20260905205142 31 20 6.4 8.0 0.00 0.00 0.00 57 1015.3
20260905204641 31 85 3.2 4.8 0.00 0.00 0.00 59 1015.9
20260905204136 31 2 3.2 4.8 0.00 0.00 0.00 60 1015.7
20260905203631 30 124 1.6 3.2 0.00 0.00 0.00 61 1016.2
20260905203126 30 113 3.2 4.8 0.00 0.00 0.00 63 1016.1
20260905202622 29 66 4.8 4.8 0.00 0.00 0.00 63 1016.3
20260905202117 29 133 3.2 4.8 0.00 0.00 0.00 63 1016.3
20260905201613 29 169 3.2 8.0 0.00 0.00 0.00 64 1016.5
20260905201112 29 192 1.6 3.2 0.00 0.00 0.00 64 1016.7
20260905200608 28 168 0.0 0.0 0.00 0.00 0.00 65 1016.6
20260905195555 28 183 6.4 8.0 0.00 0.00 0.00 64 1016.9
20260905195052 28 211 0.0 0.0 0.00 0.00 0.00 65 1016.9
20260905194551 28 138 1.6 4.8 0.00 0.00 0.00 66 1017.1
20260905194050 28 170 1.6 3.2 0.00 0.00 0.00 66 1017.3
20260905193546 28 130 1.6 3.2 0.00 0.00 0.00 66 1017.2
20260905193041 28 91 3.2 4.8 0.00 0.00 0.00 66 1017.2
20260905192536 28 161 1.6 3.2 0.00 0.00 0.00 65 1017.4
20260905192033 28 125 0.0 3.2 0.00 0.00 0.00 66 1017.5
20260905191530 28 85 4.8 4.8 0.00 0.00 0.00 65 1017.3
20260905191029 28 171 3.2 4.8 0.00 0.00 0.00 67 1017.2
20260905190527 28 153 3.2 4.8 0.00 0.00 0.00 67 1017.3
20260905190022 28 118 3.2 3.2 0.00 0.00 0.00 67 1017.2
20260905185521 27 192 1.6 3.2 0.00 0.00 0.00 70 1017.2
20260905185020 28 103 3.2 4.8 0.00 0.00 0.00 68 1017.3
20260905184515 28 175 0.0 0.0 0.00 0.00 0.00 69 1017.4
20260905184014 27 96 3.2 4.8 0.00 0.00 0.00 69 1017.4
20260905183514 28 162 1.6 3.2 0.00 0.00 0.00 68 1017.4
20260905183009 28 183 1.6 3.2 0.00 0.00 0.00 68 1017.5
20260905182508 28 172 1.6 3.2 0.00 0.00 0.00 68 1017.5
20260905182003 27 94 4.8 8.0 0.00 0.00 0.00 69 1017.5
20260905181458 27 72 1.6 3.2 0.00 0.00 0.00 71 1017.4
20260905180957 27 117 3.2 4.8 0.00 0.00 0.00 71 1017.7
20260905180452 27 198 3.2 4.8 0.00 0.00 0.00 71 1017.6
20260905175947 26 143 0.0 0.0 0.00 0.00 0.00 73 1017.7
20260905175446 26 164 1.6 3.2 0.00 0.00 0.00 73 1017.8
20260905174942 26 130 3.2 4.8 0.00 0.00 0.00 74 1017.8
20260905174437 26 160 0.0 3.2 0.00 0.00 0.00 74 1018.0
20260905173933 26 170 0.0 0.0 0.00 0.00 0.00 74 1018.1
20260905173429 26 159 1.6 3.2 0.00 0.00 0.00 75 1018.2
20260905172925 26 177 1.6 3.2 0.00 0.00 0.00 77 1018.3
20260905172422 25 231 0.0 0.0 0.00 0.00 0.00 77 1018.2